Regional Weather Roundup
Issued by NWS Charleston, WV

Home | Current Version | Previous Version | Text Only | Print | Product List | Glossary Off
Versions: 1 2 3 4 5 6 7 8 9 10 11 12 13 14 15 16 17 18 19 20 21 22 23 24 25 26 27 28 29 30 31 32 33 34 35 36 37 38 39 40 41 42 43 44 45 46 47 48 49 50

000
ASUS41 KRLX 200810
RWRRLX
West Virginia Regional Weather Roundup
National Weather Service Charleston WV
Issued by National Weather Service Pittsburgh PA
300 AM EST MON FEB 20 2017

Note: "fair" indicates few or no clouds below 12,000 feet with no
significant weather and/or obstructions to visibility.

WVZ003-200900-
Northern Panhandle of West Virginia

CITY           SKY/WX    TMP DP  RH WIND       PRES   REMARKS
WHEELING       PTCLDY    43  41  93 SW7       30.17R FOG
$$

WVZ009-200900-
Northwest West Virginia

CITY           SKY/WX    TMP DP  RH WIND       PRES   REMARKS
PARKERSBURG    FOG       35  33  92 SE3       30.22S VSB 1/4
$$

WVZ006-200900-
Western West Virginia

CITY           SKY/WX    TMP DP  RH WIND       PRES   REMARKS
HUNTINGTON     FOG       35  34  96 E3        30.19S VSB 1/4
$$

WVZ015-200900-
West Central West Virginia

CITY           SKY/WX    TMP DP  RH WIND       PRES   REMARKS
CHARLESTON     CLOUDY    39  37  92 CALM      30.20S FOG
$$

WVZ031-200900-
North Central West Virginia

CITY           SKY/WX    TMP DP  RH WIND       PRES   REMARKS
CLARKSBURG     CLOUDY    47  44  90 SW3       30.20R
MORGANTOWN     CLOUDY    49  43  80 SW3       30.20R
$$

WVZ035-042-200900-
South Central West Virginia

CITY           SKY/WX    TMP DP  RH WIND       PRES   REMARKS
BECKLEY        FOG       34  33  96 S3        30.20S VSB 1/4
BLUEFIELD      CLOUDY    39  38  96 W8        30.20R
$$

WVZ045-200900-
Greenbrier Valley of West Virginia

CITY           SKY/WX    TMP DP  RH WIND       PRES   REMARKS
LEWISBURG      FOG       31  31  99 CALM      30.19S VSB 1/4
$$

WVZ047-200900-
Northern Mountains of West Virginia

CITY           SKY/WX    TMP DP  RH WIND       PRES   REMARKS
ELKINS         CLOUDY    41  37  86 CALM      30.21R FOG
$$

WVZ052-200900-
Eastern Panhandle of West Virginia

CITY           SKY/WX    TMP DP  RH WIND       PRES   REMARKS
MARTINSBURG    CLEAR     52  41  66 W10       30.11R
PETERSBURG     CLEAR     35  35  98 CALM      30.18S FOG
$$



USA.gov is the U.S. government's official web portal to all federal, state and local government web resources and services.